Theta_e
296 295 295 294 292 290 289 287 285 285 285 284 284 284 285 285 284 284 284 284 284 283
294 295 294 292 290 289 288 286 284 284 284 284 284 284 284 283 283 283 283 283 282 282
293 293 292 290 288 286 285 284 282 282 283 283 283 282 283 282 282 282 282 281 281 280
290 290 289 289 286 285 284 283 282 282 282 282 282 282 282 282 281 281 281 281 280 280
288 288 287 287 285 284 283 283 282 282 282 282 281 281 281 280 281 280 280 280 279 278
288 287 286 286 284 283 282 282 281 281 281 281 281 281 281 281 280 280 279 279 279 278
287 287 287 285 283 282 282 281 281 281 281 281 280 280 280 280 279 279 279 279 279 278
287 287 286 284 282 282 281 281 281 281 280 280 280 279 279 279 279 279 278 278 278 278
286 285 284 283 282 281 281 280 280 280 279 279 279 283 283 280 279 278 277 277 277 278
285 284 283 282 281 280 280 279 279 279 279 279 279 285 285 283 279 278 278 277 277 277
284 283 283 282 281 281 280 279 279 279 279 279 279 285 285 284 279 279 278 278 277 277
283 282 281 281 280 280 280 279 280 280 279 279 279 285 286 284 281 278 279 278 277 277
282 281 280 282 281 281 280 280 279 279 279 279 279 285 286 285 283 281 281 279 278 279
282 281 281 281 281 280 279 279 279 278 279 279 280 281 286 287 283 282 282 280 279 278
Wind_Speed
13 9 9 12 10 9 9 9 11 9 9 9 9 8 7 6 6 7 7 9 6 5
11 12 11 12 10 8 7 7 10 10 11 10 10 10 9 7 8 7 7 8 8 7
11 10 10 10 12 10 8 9 10 11 10 10 9 9 9 7 8 9 6 6 8 7
10 10 10 10 10 11 10 11 12 12 12 12 11 10 9 9 9 10 9 7 7 8
11 11 10 10 10 11 12 11 12 12 12 11 11 10 11 11 9 10 10 9 8 9
14 14 13 12 12 11 12 12 10 11 12 11 11 10 8 9 10 9 8 8 8 9
14 13 12 12 13 14 13 14 13 13 12 12 11 10 9 9 8 7 6 7 6 8
13 13 13 13 13 13 13 13 13 13 10 9 9 8 10 9 8 8 6 5 5 6
14 14 14 13 14 14 14 14 13 13 13 13 8 16 17 12 9 8 7 7 5 5
13 13 14 14 14 15 16 16 16 14 14 13 10 21 19 17 7 8 7 7 7 7
13 13 12 13 14 14 13 15 15 14 14 12 10 20 21 18 8 6 6 7 8 9
13 12 13 13 13 11 12 11 12 12 13 13 11 23 21 16 8 6 6 7 8 9
12 13 13 13 12 10 10 9 7 8 9 10 10 20 21 17 6 8 7 6 9 15
10 11 10 10 9 10 10 10 8 8 7 8 10 12 21 20 8 9 8 7 7 7
Wind_Direction
171 175 178 178 171 178 179 174 167 160 155 148 141 140 136 136 141 135 128 128 114 119
174 175 175 174 169 171 170 165 162 155 148 146 145 144 139 139 132 121 118 120 119 109
177 175 169 168 173 168 148 155 156 150 150 146 144 142 137 133 134 129 125 127 130 127
172 170 168 175 168 166 154 157 164 158 155 155 153 150 141 143 142 136 138 140 140 142
162 165 170 175 168 162 164 162 163 159 159 157 155 155 153 149 153 151 155 156 145 154
173 175 178 174 166 165 160 162 158 157 160 164 161 158 155 154 158 159 159 158 168 165
180 179 179 172 170 169 169 163 164 168 168 169 164 161 157 153 155 157 164 168 171 172
179 177 172 170 170 166 168 170 170 162 161 159 161 163 159 156 158 162 163 160 181 194
175 174 174 169 168 168 169 164 162 169 166 162 166 174 172 161 161 161 168 177 200 208
176 177 178 171 170 173 174 166 169 166 164 168 165 174 177 173 166 168 171 171 195 212
175 174 173 174 176 176 173 177 173 170 169 161 167 180 182 174 154 171 187 186 202 216
173 167 166 175 173 169 170 174 173 168 162 164 169 182 178 167 164 174 205 213 216 220
162 163 171 171 166 164 160 157 149 152 167 164 159 179 180 178 165 194 217 203 224 215
156 156 157 145 142 139 132 130 139 155 161 165 164 182 190 194 183 210 214 219 218 216